TimeMDT,TemperatureF,Dew PointF,Humidity,Sea Level PressureIn,VisibilityMPH,Wind Direction,Wind SpeedMPH,Gust SpeedMPH,PrecipitationIn,Events,Conditions,WindDirDegrees,DateUTC
12:53 AM,66.0,37.0,34,29.77,10.0,SE,8.1,-,N/A,,Clear,140,2013-07-11 06:53:00
1:53 AM,64.9,37.0,36,29.75,10.0,Calm,Calm,-,N/A,,Clear,0,2013-07-11 07:53:00
2:53 AM,60.1,37.0,42,29.76,10.0,ENE,3.5,-,N/A,,Clear,60,2013-07-11 08:53:00
3:53 AM,57.9,39.0,49,29.76,10.0,SW,5.8,-,N/A,,Clear,220,2013-07-11 09:53:00
4:53 AM,57.0,37.0,47,29.79,10.0,Calm,Calm,-,N/A,,Clear,0,2013-07-11 10:53:00
5:53 AM,55.0,37.0,51,29.81,10.0,Calm,Calm,-,N/A,,Clear,0,2013-07-11 11:53:00
6:53 AM,55.9,37.9,51,29.81,10.0,SSE,3.5,-,N/A,,Clear,150,2013-07-11 12:53:00
7:53 AM,63.0,39.0,41,29.79,10.0,Calm,Calm,-,N/A,,Clear,0,2013-07-11 13:53:00
8:53 AM,66.9,39.0,36,29.78,10.0,NNW,4.6,-,N/A,,Clear,340,2013-07-11 14:53:00
9:53 AM,71.1,39.9,32,29.79,10.0,NW,5.8,-,N/A,,Partly Cloudy,320,2013-07-11 15:53:00
10:53 AM,72.0,41.0,33,29.81,10.0,Calm,Calm,-,N/A,,Overcast,0,2013-07-11 16:53:00
11:53 AM,75.0,36.0,24,29.80,10.0,WSW,8.1,-,N/A,,Overcast,250,2013-07-11 17:53:00
12:53 PM,73.9,39.0,28,29.82,10.0,ESE,4.6,-,N/A,,Overcast,120,2013-07-11 18:53:00
1:53 PM,77.0,34.0,21,29.81,10.0,SSW,16.1,24.2,N/A,,Overcast,200,2013-07-11 19:53:00
2:53 PM,79.0,35.1,20,29.80,10.0,South,17.3,20.7,N/A,,Clear,180,2013-07-11 20:53:00
3:53 PM,77.0,37.0,24,29.80,10.0,South,23.0,28.8,N/A,,Partly Cloudy,180,2013-07-11 21:53:00
4:53 PM,77.0,37.0,24,29.79,10.0,SSW,15.0,-,N/A,,Clear,200,2013-07-11 22:53:00
5:53 PM,75.9,37.0,24,29.78,10.0,South,17.3,33.4,N/A,,Clear,190,2013-07-11 23:53:00
6:53 PM,73.9,36.0,25,29.79,10.0,SSW,11.5,23.0,N/A,,Mostly Cloudy,210,2013-07-12 00:53:00
7:53 PM,69.1,42.1,38,29.81,10.0,NNW,8.1,-,N/A,,Mostly Cloudy,340,2013-07-12 01:53:00
8:53 PM,63.0,44.1,50,29.87,10.0,NNW,24.2,31.1,N/A,,Overcast,340,2013-07-12 02:53:00
9:53 PM,63.0,41.0,45,29.89,10.0,NW,11.5,-,N/A,,Overcast,320,2013-07-12 03:53:00
10:53 PM,62.1,42.1,48,29.87,10.0,North,3.5,-,N/A,,Mostly Cloudy,360,2013-07-12 04:53:00
11:53 PM,57.9,43.0,58,29.87,10.0,SE,6.9,-,N/A,,Clear,130,2013-07-12 05:53:00